Weather History for Oxford, CT

Change the Weather History Date:

Wednesday, March 9, 2011

  Actual Average Record
Temperature  
Mean Temperature 34 °F -  
Max Temperature 42 °F 38 °F 62 °F (2002)
Min Temperature 26 °F 23 °F 3 °F (2007)
Degree Days  
Heating Degree Days 31    
Moisture  
Dew Point 22 °F    
Average Humidity 65    
Maximum Humidity 75    
Minimum Humidity 49    
Precipitation  
Precipitation 0.00 in - - ()
Sea Level Pressure  
Sea Level Pressure 30.59 in    
Wind  
Wind Speed 6 mph (East)    
Max Wind Speed 16 mph    
Max Gust Speed 23 mph    
Visibility 10 miles    
Events      
Averages and records for this station are not official NWS values.
T = Trace of Precipitation, MM = Missing Value Source: NWS Daily Summary

Daily Weather History Graph

Daily Weather History Graph

Search for Another Location

Airport:

Trip Planner

Search our weather history database for the weather conditions in past years. The results will help you decide how hot, cold, wet, or windy it might be!

Date:

Astronomy

Mar. 09, 2011 Rise Set
Actual Time 6:14 AM EST 5:52 PM EST
Civil Twilight 5:47 AM EST 6:19 PM EST
Nautical Twilight 5:15 AM EST 6:51 PM EST
Astronomical Twilight 4:42 AM EST 7:24 PM EST
Moon 8:00 AM EST (3/9) 10:51 PM EST (3/9)
Length of Visible Light 12h 32m
Length of Day
11h 37m
Waxing Crescent, 20% of the Moon is Illuminated
Mar 9
Waxing Crescent
Mar 12
First Quarter
Mar 19
Full
Mar 26
Last Quarter
Apr 3
New

Hourly Weather History & Observations

Time (EST) Temp. Windchill Dew Point Humidity Pressure Visibility Wind Dir Wind Speed Gust Speed Precip Events Conditions
12:15 AM 30.2 °F 25.4 °F 15.8 °F 55% 30.61 in 10.0 mi ENE 4.6 mph - N/A   Clear
12:35 AM 30.2 °F 25.4 °F 14.0 °F 51% 30.60 in 10.0 mi ENE 4.6 mph - N/A   Clear
12:55 AM 30.2 °F 23.4 °F 14.0 °F 51% 30.60 in 10.0 mi ENE 6.9 mph - N/A   Clear
1:15 AM 28.4 °F 24.6 °F 15.8 °F 59% 30.60 in 10.0 mi ENE 3.5 mph - N/A   Clear
1:35 AM 28.4 °F 24.6 °F 15.8 °F 59% 30.60 in 10.0 mi ENE 3.5 mph - N/A   Clear
1:55 AM 28.4 °F 23.3 °F 15.8 °F 59% 30.61 in 10.0 mi ENE 4.6 mph - N/A   Clear
2:15 AM 28.4 °F 23.3 °F 17.6 °F 64% 30.60 in 10.0 mi NE 4.6 mph - N/A   Clear
2:35 AM 28.4 °F 24.6 °F 17.6 °F 64% 30.60 in 10.0 mi ENE 3.5 mph - N/A   Clear
2:55 AM 28.4 °F 23.3 °F 19.4 °F 69% 30.60 in 10.0 mi ENE 4.6 mph - N/A   Clear
3:15 AM 28.4 °F 24.6 °F 19.4 °F 69% 30.60 in 10.0 mi ENE 3.5 mph - N/A   Clear
3:35 AM 28.4 °F 24.6 °F 19.4 °F 69% 30.61 in 10.0 mi ENE 3.5 mph - N/A   Clear
3:55 AM 28.4 °F 21.2 °F 19.4 °F 69% 30.61 in 10.0 mi NE 6.9 mph - N/A   Clear
4:15 AM 28.4 °F 21.2 °F 17.6 °F 64% 30.63 in 10.0 mi NE 6.9 mph - N/A   Clear
4:35 AM 28.4 °F 22.2 °F 17.6 °F 64% 30.62 in 10.0 mi ENE 5.8 mph - N/A   Clear
4:55 AM 28.4 °F 22.2 °F 17.6 °F 64% 30.62 in 10.0 mi ENE 5.8 mph - N/A   Clear
5:15 AM 26.6 °F 20.0 °F 17.6 °F 69% 30.62 in 10.0 mi ENE 5.8 mph - N/A   Clear
5:35 AM 28.4 °F 21.2 °F 17.6 °F 64% 30.62 in 10.0 mi ENE 6.9 mph - N/A   Clear
5:45 AM 28.4 °F 22.2 °F 17.6 °F 64% 30.62 in 10.0 mi East 5.8 mph - N/A   Clear
7:45 AM 28.4 °F 22.2 °F 19.4 °F 69% 30.65 in 10.0 mi East 5.8 mph - N/A   Clear
8:45 AM 32.0 °F 23.0 °F 21.2 °F 64% 30.66 in 10.0 mi ESE 11.5 mph - N/A   Clear
10:45 AM 35.6 °F 29.2 °F 21.2 °F 56% 30.66 in 10.0 mi ESE 8.1 mph 16.1 mph N/A   Partly Cloudy
11:55 AM 39.2 °F 34.2 °F 23.0 °F 52% 30.63 in 10.0 mi ESE 6.9 mph 16.1 mph N/A   Clear
12:45 PM 42.8 °F 37.5 °F 24.8 °F 49% 30.59 in 10.0 mi ESE 9.2 mph 18.4 mph N/A   Mostly Cloudy
1:45 PM 42.8 °F 36.6 °F 26.6 °F 53% 30.58 in 10.0 mi ESE 11.5 mph - N/A   Mostly Cloudy
2:45 PM 39.2 °F 33.0 °F 26.6 °F 61% 30.58 in 10.0 mi South 9.2 mph 18.4 mph N/A   Mostly Cloudy
3:45 PM 37.4 °F 29.8 °F 26.6 °F 65% 30.57 in 10.0 mi SSE 11.5 mph 20.7 mph N/A   Clear
4:45 PM 35.6 °F 27.1 °F 26.6 °F 70% 30.56 in 10.0 mi SSE 12.7 mph 23.0 mph N/A   Partly Cloudy
5:45 PM 33.8 °F 23.5 °F 26.6 °F 75% 30.56 in 10.0 mi SSE 16.1 mph 23.0 mph N/A   Overcast
6:45 PM 33.8 °F 25.3 °F 26.6 °F 75% 30.56 in 10.0 mi SSE 11.5 mph 20.7 mph N/A   Overcast
7:45 PM 33.8 °F 25.3 °F 26.6 °F 75% 30.57 in 10.0 mi SSE 11.5 mph - N/A   Overcast
8:45 PM 33.8 °F 27.0 °F 24.8 °F 70% 30.55 in 10.0 mi SE 8.1 mph 16.1 mph N/A   Overcast
8:55 PM 33.8 °F 26.4 °F 24.8 °F 70% 30.55 in 10.0 mi ESE 9.2 mph 17.3 mph N/A   Overcast
9:15 PM 33.8 °F 27.0 °F 24.8 °F 70% 30.56 in 10.0 mi ESE 8.1 mph - N/A   Overcast
9:35 PM 33.8 °F 27.7 °F 24.8 °F 70% 30.55 in 10.0 mi ESE 6.9 mph - N/A   Overcast
9:55 PM 33.8 °F 27.7 °F 24.8 °F 70% 30.56 in 10.0 mi East 6.9 mph - N/A   Overcast
10:15 PM 33.8 °F 27.0 °F 24.8 °F 70% 30.56 in 10.0 mi ESE 8.1 mph - N/A   Overcast
10:35 PM 33.8 °F 26.4 °F 24.8 °F 70% 30.54 in 10.0 mi ESE 9.2 mph - N/A   Overcast
10:55 PM 33.8 °F 27.0 °F 24.8 °F 70% 30.54 in 10.0 mi ESE 8.1 mph 17.3 mph N/A   Overcast
11:15 PM 33.8 °F 25.3 °F 26.6 °F 75% 30.52 in 10.0 mi ESE 11.5 mph 16.1 mph N/A   Overcast
11:35 PM 33.8 °F 25.8 °F 26.6 °F 75% 30.49 in 10.0 mi East 10.4 mph 17.3 mph N/A   Overcast
11:55 PM 33.8 °F 27.0 °F 26.6 °F 75% 30.50 in 10.0 mi East 8.1 mph - N/A   Overcast